Indianapolis, IN

12:34 AM EST on December 06, 2019 (GMT -0500)
Indianapolis Terry

Weather History for KTYQ - November, 2019

Change the Weather History Date:

Tuesday, November 19, 2019

  Actual Average (KEYE) Record (KEYE)
Temperature  
Mean Temperature 34 °F -  
Max Temperature 44 °F 47 °F 61 °F (1999)
Min Temperature 24 °F 33 °F 14 °F (2014)
Degree Days  
Heating Degree Days 31    
Moisture  
Dew Point 36 °F    
Average Humidity 99    
Maximum Humidity 100    
Minimum Humidity 93    
Precipitation  
Precipitation 0.02 in - - ()
Sea Level Pressure  
Sea Level Pressure 29.83 in    
Wind  
Wind Speed 2 mph ()    
Max Wind Speed 7 mph    
Max Gust Speed -    
Visibility 3.8 miles    
Events Fog , Rain    
Averages and records for this station are not official NWS values.
T = Trace of Precipitation, MM = Missing Value Source: Averaged Metar Reports

Daily Weather History Graph

Daily Weather History Graph

Search for Another Location

Airport or City:

Astronomy

Nov. 19, 2019 Rise Set
Actual Time 7:34 AM EST 5:25 PM EST
Civil Twilight 7:05 AM EST 5:55 PM EST
Nautical Twilight 6:32 AM EST 6:28 PM EST
Astronomical Twilight 6:00 AM EST 7:00 PM EST
Moon No Moon Rise 1:44 PM EST (11/19)
Length of Visible Light 10h 49m
Length of Day
9h 51m
Waning Gibbous, 52% of the Moon is Illuminated
Nov 19
Waning Gibbous
Nov 19
Last Quarter
Nov 26
New
Dec 4
First Quarter
Dec 12
Full

Hourly Weather History & Observations

Time (EST) Temp. Windchill Dew Point Humidity Pressure Visibility Wind Dir Wind Speed Gust Speed Precip Events Conditions
12:15 AM 34.7 °F - 34.7 °F 100% 29.78 in 5.0 mi Calm Calm - N/A   Overcast
12:35 AM 34.7 °F - 34.7 °F 100% 29.78 in 4.0 mi Calm Calm - N/A   Overcast
12:55 AM 34.7 °F 31.8 °F 34.7 °F 100% 29.78 in 4.0 mi South 3.5 mph - N/A   Overcast
1:15 AM 34.7 °F 31.8 °F 34.7 °F 100% 29.78 in 4.0 mi South 3.5 mph - N/A   Overcast
1:35 AM 34.7 °F 30.6 °F 34.7 °F 100% 29.79 in 5.0 mi SW 4.6 mph - N/A   Overcast
1:55 AM 34.7 °F 31.8 °F 34.7 °F 100% 29.78 in 5.0 mi South 3.5 mph - N/A   Overcast
2:15 AM 33.4 °F - 33.4 °F 100% 29.78 in 5.0 mi Calm Calm - N/A   Mostly Cloudy
2:35 AM 32.2 °F - 32.2 °F 100% 29.78 in 3.0 mi Calm Calm - N/A   Scattered Clouds
2:55 AM 31.3 °F 27.9 °F 31.3 °F 100% 29.78 in 3.0 mi ESE 3.5 mph - N/A   Scattered Clouds
3:15 AM 32.0 °F 28.7 °F 32.0 °F 100% 29.78 in 3.0 mi SSE 3.5 mph - N/A   Overcast
3:35 AM 31.3 °F - 31.3 °F 100% 29.78 in 2.5 mi Calm Calm - N/A   Mostly Cloudy
3:55 AM 30.6 °F - 30.6 °F 100% 29.77 in 2.0 mi Calm Calm - N/A   Clear
4:15 AM 30.2 °F 26.7 °F 30.2 °F 100% 29.76 in 2.0 mi SSE 3.5 mph - N/A   Clear
4:35 AM 29.8 °F 24.9 °F 29.8 °F 100% 29.76 in 2.5 mi SSE 4.6 mph - N/A   Clear
4:55 AM 29.8 °F 26.3 °F 29.8 °F 100% 29.76 in 2.5 mi SE 3.5 mph - N/A   Clear
5:15 AM 28.6 °F 24.8 °F 28.6 °F 100% 29.76 in 1.5 mi SE 3.5 mph - N/A   Mist
5:35 AM 28.0 °F - 28.0 °F 100% 29.76 in 1.0 mi Calm Calm - N/A   Mist
5:55 AM 27.1 °F - 27.1 °F 100% 29.77 in 0.2 mi Calm Calm - N/A Fog Light Freezing Fog
6:15 AM 26.1 °F - 26.1 °F 100% 29.77 in 0.2 mi Calm Calm - N/A Fog Light Freezing Fog
6:35 AM 25.0 °F - 25.0 °F 100% 29.77 in 0.2 mi Calm Calm - N/A Fog Light Freezing Fog
6:55 AM 25.5 °F 21.3 °F 25.5 °F 100% 29.77 in 0.2 mi ESE 3.5 mph - N/A Fog Light Freezing Fog
7:15 AM 25.7 °F 21.5 °F 25.7 °F 100% 29.77 in 0.2 mi ESE 3.5 mph - N/A Fog Light Freezing Fog
7:35 AM 27.7 °F 23.8 °F 27.7 °F 100% 29.77 in 0.2 mi SE 3.5 mph - N/A Fog Light Freezing Fog
7:55 AM 24.8 °F 20.5 °F 24.8 °F 100% 29.78 in 0.2 mi ESE 3.5 mph - N/A Fog Light Freezing Fog
8:15 AM 27.0 °F 23.0 °F 27.0 °F 100% 29.78 in 0.2 mi East 3.5 mph - N/A Fog Light Freezing Fog
8:35 AM 29.7 °F 26.1 °F 29.7 °F 100% 29.79 in 0.2 mi East 3.5 mph - N/A Fog Light Freezing Fog
8:55 AM 29.7 °F 26.1 °F 29.7 °F 100% 29.79 in 0.2 mi ESE 3.5 mph - N/A Fog Light Freezing Fog
9:15 AM 30.7 °F 27.3 °F 30.7 °F 100% 29.79 in 0.5 mi SE 3.5 mph - N/A Fog Light Freezing Fog
9:35 AM 32.9 °F 28.5 °F 32.9 °F 100% 29.79 in 3.0 mi SE 4.6 mph - N/A   Scattered Clouds
9:55 AM 34.3 °F 30.2 °F 34.3 °F 100% 29.79 in 5.0 mi SE 4.6 mph - N/A   Clear
10:15 AM 35.6 °F 30.7 °F 35.6 °F 100% 29.79 in 7.0 mi SSE 5.8 mph - N/A   Clear
10:35 AM 36.1 °F 33.5 °F 36.1 °F 100% 29.80 in 7.0 mi SE 3.5 mph - N/A   Clear
10:55 AM 36.5 °F 33.9 °F 36.5 °F 100% 29.80 in 7.0 mi SE 3.5 mph - N/A   Scattered Clouds
11:15 AM 37.4 °F 32.8 °F 37.4 °F 100% 29.81 in 7.0 mi SE 5.8 mph - N/A   Mostly Cloudy
11:35 AM 38.3 °F 34.8 °F 38.3 °F 100% 29.80 in 7.0 mi ESE 4.6 mph - N/A   Light Drizzle
11:55 AM 39.2 °F 37.0 °F 39.2 °F 100% 29.80 in 7.0 mi SE 3.5 mph - N/A   Light Drizzle
12:15 PM 40.3 °F 38.2 °F 39.0 °F 95% 29.80 in 10.0 mi SSE 3.5 mph - N/A   Light Drizzle
12:35 PM 40.6 °F 37.5 °F 38.8 °F 93% 29.80 in 10.0 mi ESE 4.6 mph - N/A Rain Rain
12:55 PM 40.6 °F 37.5 °F 39.6 °F 96% 29.79 in 10.0 mi SE 4.6 mph - N/A Rain Rain
1:15 PM 41.0 °F 38.0 °F 40.8 °F 99% 29.79 in 5.0 mi SE 4.6 mph - 0.01 in Rain Rain
1:35 PM 41.9 °F 38.2 °F 41.5 °F 99% 29.79 in 10.0 mi SE 5.8 mph - 0.01 in   Light Drizzle
1:55 PM 41.5 °F 38.6 °F 41.5 °F 100% 29.79 in 10.0 mi ESE 4.6 mph - 0.01 in   Light Drizzle
2:15 PM 42.3 °F 39.4 °F 41.9 °F 99% 29.79 in 10.0 mi ESE 4.6 mph - N/A   Overcast
2:35 PM 44.2 °F 41.8 °F 43.3 °F 97% 29.79 in 10.0 mi SE 4.6 mph - N/A   Overcast
2:55 PM 43.7 °F 41.1 °F 42.6 °F 96% 29.79 in 7.0 mi ESE 4.6 mph - N/A   Overcast
3:15 PM 43.7 °F 42.1 °F 42.8 °F 97% 29.80 in 7.0 mi ESE 3.5 mph - N/A   Overcast
3:35 PM 44.1 °F 42.5 °F 43.0 °F 96% 29.80 in 7.0 mi SE 3.5 mph - N/A   Overcast
3:55 PM 43.7 °F 42.1 °F 42.4 °F 95% 29.81 in 7.0 mi SSE 3.5 mph - N/A   Overcast
4:15 PM 43.5 °F - 42.6 °F 97% 29.83 in 7.0 mi Calm Calm - N/A   Overcast
4:35 PM 43.2 °F - 42.8 °F 99% 29.85 in 7.0 mi Calm Calm - N/A   Overcast
4:55 PM 42.8 °F - 42.8 °F 100% 29.86 in 7.0 mi Calm Calm - N/A   Overcast
5:15 PM 42.4 °F - 42.4 °F 100% 29.86 in 7.0 mi Calm Calm - N/A   Overcast
5:35 PM 41.9 °F 40.0 °F 41.9 °F 100% 29.87 in 4.0 mi SW 3.5 mph - N/A Rain Light Rain
5:55 PM 41.5 °F - 41.5 °F 100% 29.88 in 3.0 mi Calm Calm - N/A   Drizzle
6:15 PM 41.2 °F - 41.2 °F 100% 29.89 in 2.0 mi Calm Calm - 0.01 in   Drizzle
6:35 PM 41.0 °F - 41.0 °F 100% 29.90 in 2.0 mi Calm Calm - 0.01 in Rain Light Rain
6:55 PM 40.8 °F - 40.8 °F 100% 29.90 in 2.0 mi Calm Calm - 0.01 in   Overcast
7:15 PM 40.5 °F - 40.5 °F 100% 29.91 in 2.0 mi Calm Calm - N/A   Overcast
7:35 PM 41.0 °F - 41.0 °F 100% 29.91 in 2.0 mi Calm Calm - N/A   Overcast
7:55 PM 40.8 °F 36.9 °F 40.8 °F 100% 29.92 in 2.5 mi West 5.8 mph - N/A   Overcast
8:15 PM 40.5 °F 35.8 °F 40.5 °F 100% 29.92 in 3.0 mi West 6.9 mph - N/A   Overcast
8:35 PM 40.3 °F 36.3 °F 40.3 °F 100% 29.93 in 2.5 mi West 5.8 mph - N/A   Overcast
8:55 PM 40.1 °F 36.1 °F 40.1 °F 100% 29.94 in 2.5 mi West 5.8 mph - N/A   Overcast
9:15 PM 40.1 °F 36.9 °F 40.1 °F 100% 29.94 in 2.5 mi WNW 4.6 mph - N/A   Overcast
9:35 PM 39.2 °F 35.0 °F 39.2 °F 100% 29.95 in 0.8 mi WNW 5.8 mph - N/A   Overcast
9:55 PM 39.2 °F 35.0 °F 39.2 °F 100% 29.95 in 0.5 mi West 5.8 mph - N/A Fog Fog
10:15 PM 39.2 °F 35.0 °F 39.2 °F 100% 29.96 in 0.8 mi NW 5.8 mph - N/A   Overcast
10:35 PM 39.2 °F - 39.2 °F 100% 29.96 in 0.5 mi Calm Calm - N/A Fog Fog
10:55 PM 39.2 °F - 39.2 °F 100% 29.96 in 0.5 mi Calm Calm - N/A Fog Fog
11:15 PM 39.6 °F - 39.6 °F 100% 29.96 in 0.2 mi Calm Calm - N/A Fog Fog
11:35 PM 39.6 °F 34.7 °F 39.6 °F 100% 29.97 in 0.5 mi NNE 6.9 mph - N/A Fog Fog
11:55 PM 39.2 °F 35.9 °F 39.2 °F 100% 29.98 in 1.0 mi North 4.6 mph - N/A   Overcast